Ireland West Airport Knock, Ireland

8:54 AM IST on May 27, 2017 (GMT +0100)
Connaught

Weather History for EIKN - January, 2014

Change the Weather History Date:

Wednesday, January 29, 2014

  Actual Average Record
Temperature  
Mean Temperature 40 °F -  
Max Temperature 44 °F - - ()
Min Temperature 35 °F - - ()
Degree Days  
Heating Degree Days 26    
Moisture  
Dew Point 38 °F    
Average Humidity 89    
Maximum Humidity 98    
Minimum Humidity 76    
Precipitation  
Precipitation 0.04 in - - ()
Sea Level Pressure  
Sea Level Pressure 29.46 in    
Wind  
Wind Speed 9 mph ()    
Max Wind Speed 16 mph    
Max Gust Speed -    
Visibility 7.3 miles    
Events Rain    
T = Trace of Precipitation, MM = Missing Value Source: Averaged Metar Reports

Daily Weather History Graph

Daily Weather History Graph

Search for Another Location

Airport or City:

Trip Planner

Search our weather history database for the weather conditions in past years. The results will help you decide how hot, cold, wet, or windy it might be!

Date:

Astronomy

Jan. 29, 2014 Rise Set
Actual Time 8:27 AM GMT 5:10 PM GMT
Civil Twilight 7:47 AM GMT 5:49 PM GMT
Nautical Twilight 7:05 AM GMT 6:32 PM GMT
Astronomical Twilight 6:23 AM GMT 7:13 PM GMT
Moon 6:54 AM GMT (1/29) 3:52 PM GMT (1/29)
Length of Visible Light 10h 01m
Length of Day
8h 43m
Waning Crescent, 3% of the Moon is Illuminated
Jan 29
Waning Crescent
Jan 30
New
Feb 6
First Quarter
Feb 14
Full
Feb 22
Last Quarter

Hourly Weather History & Observations

Time (GMT) Temp. Windchill Dew Point Humidity Pressure Visibility Wind Dir Wind Speed Gust Speed Precip Events Conditions
12:00 AM 38 °F - 35 °F 87% 29.30 in - NW 15.7 mph - -  
1:00 AM 38 °F - 35 °F 82% 29.32 in - NNW 13.4 mph - -  
2:00 AM 39 °F - 35 °F 80% 29.34 in - NW 15.7 mph - -  
3:00 AM 38 °F - 36 °F 87% 29.36 in - NW 11.2 mph - -  
4:00 AM 39 °F - 36 °F 86% 29.37 in - NW 11.2 mph - -  
5:00 AM 38 °F - 36 °F 88% 29.38 in - NW 8.9 mph - -  
6:00 AM 38 °F - 35 °F 87% 29.39 in 16 mi NW 11.2 mph - -   Partly Cloudy
7:00 AM 39 °F - 36 °F 84% 29.41 in 16 mi NW 11.2 mph - - Rain Light Rain Showers
8:00 AM 38 °F - 36 °F 92% 29.43 in 12 mi NW 8.9 mph - - Rain Light Rain Showers
8:00 AM 39.2 °F 33.6 °F 37.4 °F 93% 29.39 in 6.2 mi NW 8.1 mph - N/A   Mostly Cloudy
8:30 AM 39.2 °F 33.0 °F 37.4 °F 93% 29.39 in 6.2 mi WNW 9.2 mph - N/A   Mostly Cloudy
9:00 AM 38 °F - 35 °F 86% 29.44 in 7 mi WNW 13.4 mph - - Rain Light Rain Showers
9:00 AM 37.4 °F 28.9 °F 35.6 °F 93% 29.42 in 6.2 mi WNW 13.8 mph - N/A Rain Light Rain Showers
9:30 AM 37.4 °F 28.9 °F 35.6 °F 93% 29.42 in 3.7 mi WNW 13.8 mph - N/A Rain Light Rain Showers
10:00 AM 38 °F - 36 °F 91% 29.44 in 6 mi WNW 13.4 mph - - Rain Light Rain Showers
10:00 AM 37.4 °F 28.9 °F 35.6 °F 93% 29.42 in 5.6 mi WNW 13.8 mph - N/A Rain Light Rain Showers
10:30 AM 39.2 °F 31.6 °F 35.6 °F 87% 29.42 in 6.2 mi West 12.7 mph - N/A   Scattered Clouds
11:00 AM 39 °F - 37 °F 88% 29.46 in 16 mi West 8.9 mph - - Rain Light Rain Showers
11:00 AM 39.2 °F 33.0 °F 37.4 °F 93% 29.42 in 6.2 mi West 9.2 mph - N/A   Scattered Clouds
11:30 AM 41.0 °F 34.3 °F 39.2 °F 93% 29.42 in 6.2 mi West 11.5 mph - N/A   Mostly Cloudy
12:00 PM 41 °F - 40 °F 93% 29.45 in 22 mi WNW 11.2 mph - - Rain Light Rain Showers
12:00 PM 41.0 °F 34.7 °F 39.2 °F 93% 29.42 in 6.2 mi WNW 10.4 mph - N/A   Partly Cloudy
12:30 PM 42.8 °F 37.5 °F 39.2 °F 87% 29.42 in 6.2 mi NNW 9.2 mph - N/A   Scattered Clouds
1:00 PM 43 °F - 38 °F 78% 29.47 in 22 mi NNW 11.2 mph - -   Mostly Cloudy
1:00 PM 42.8 °F 36.6 °F 39.2 °F 87% 29.44 in 6.2 mi NNW 11.5 mph - N/A   Scattered Clouds
1:30 PM 44.6 °F 39.7 °F 39.2 °F 81% 29.44 in 6.2 mi NNW 9.2 mph - N/A   Scattered Clouds
2:00 PM 43 °F - 40 °F 83% 29.47 in 22 mi North 8.9 mph - - Rain Light Rain Showers
2:00 PM 42.8 °F 38.0 °F 39.2 °F 87% 29.44 in 6.2 mi North 8.1 mph - N/A   Scattered Clouds
2:30 PM 42.8 °F 39.3 °F 39.2 °F 87% 29.44 in 6.2 mi NNE 5.8 mph - N/A   Scattered Clouds
3:00 PM 42 °F - 40 °F 88% 29.50 in 34 mi NNE 6.7 mph - -   Partly Cloudy
3:00 PM 42.8 °F 39.3 °F 39.2 °F 87% 29.47 in 6.2 mi NNE 5.8 mph - N/A   Scattered Clouds
3:30 PM 42.8 °F 41.1 °F 39.2 °F 87% 29.47 in 6.2 mi North 3.5 mph - N/A   Scattered Clouds
4:00 PM 44 °F - 39 °F 76% 29.52 in 37 mi NNE 2.2 mph - -   Mostly Cloudy
4:00 PM 42.8 °F - 39.2 °F 87% 29.47 in 6.2 mi NNE 2.3 mph - N/A   Scattered Clouds
4:30 PM 42.8 °F 39.3 °F 39.2 °F 87% 29.50 in 6.2 mi NNE 5.8 mph - N/A   Scattered Clouds
5:00 PM 42 °F - 40 °F 91% 29.55 in 37 mi NNE 4.5 mph - -   Mostly Cloudy
5:00 PM 42.8 °F 41.1 °F 41.0 °F 93% 29.53 in 6.2 mi NNE 3.5 mph - N/A   Mostly Cloudy
5:30 PM 41.0 °F 39.0 °F 39.2 °F 93% 29.53 in 6.2 mi NNE 3.5 mph - N/A   Mostly Cloudy
6:00 PM 41 °F - 39 °F 92% 29.57 in 37 mi ENE 4.5 mph - -   Partly Cloudy
6:00 PM 41.0 °F 38.0 °F 39.2 °F 93% 29.53 in 6.2 mi ENE 4.6 mph - N/A   Mostly Cloudy
6:30 PM 41.0 °F 36.4 °F 39.2 °F 93% 29.56 in 6.2 mi ENE 6.9 mph - N/A   Scattered Clouds
7:00 PM 40 °F - 38 °F 91% 29.61 in 31 mi ENE 4.5 mph - -   Mostly Cloudy
7:00 PM 41.0 °F 38.0 °F 39.2 °F 93% 29.56 in 6.2 mi ENE 4.6 mph - N/A   Mostly Cloudy
8:00 PM 39 °F - 38 °F 93% 29.62 in - ENE 6.7 mph - -  
9:00 PM 38 °F - 37 °F 94% 29.63 in - East 6.7 mph - -  
10:00 PM 38 °F - 37 °F 97% 29.64 in - East 8.9 mph - -  
11:00 PM 38 °F - 38 °F 98% 29.65 in - ESE 6.7 mph - -